Weather History for KDUA - November, 2012

Change the Weather History Date:

Friday, November 9, 2012

  Actual Average (KADM) Record (KADM)
Temperature  
Mean Temperature 70 °F -  
Max Temperature 80 °F 62 °F 84 °F (2002)
Min Temperature 60 °F 45 °F 32 °F (2000)
Cooling Degree Days 5    
Growing Degree Days 20 (Base 50)    
Moisture  
Dew Point 57 °F    
Average Humidity 66    
Maximum Humidity 94    
Minimum Humidity 39    
Precipitation  
Precipitation 0.00 in - - ()
Sea Level Pressure  
Sea Level Pressure 29.97 in    
Wind  
Wind Speed 13 mph (South)    
Max Wind Speed 25 mph    
Max Gust Speed 31 mph    
Visibility 10 miles    
Events      
Averages and records for this station are not official NWS values.
T = Trace of Precipitation, MM = Missing Value Source: NWS Daily Summary

Daily Weather History Graph

Daily Weather History Graph

Search for Another Location

Airport or City:

Trip Planner

Search our weather history database for the weather conditions in past years. The results will help you decide how hot, cold, wet, or windy it might be!

Date:

Astronomy

Nov. 09, 2012 Rise Set
Actual Time 6:52 AM CST 5:25 PM CST
Civil Twilight 6:26 AM CST 5:51 PM CST
Nautical Twilight 5:56 AM CST 6:21 PM CST
Astronomical Twilight 5:27 AM CST 6:51 PM CST
Moon 2:05 AM CST (11/9) 2:28 PM CST (11/9)
Length of Visible Light 11h 25m
Length of Day
10h 32m
Waning Crescent, 23% of the Moon is Illuminated
Nov 9
Waning Crescent
Nov 13
New
Nov 20
First Quarter
Nov 28
Full
Dec 6
Last Quarter

Hourly Weather History & Observations

Time (CST) Temp. Heat Index Dew Point Humidity Pressure Visibility Wind Dir Wind Speed Gust Speed Precip Events Conditions
12:15 AM 60.8 °F - 53.6 °F 77% 29.99 in 10.0 mi SE 9.2 mph - N/A   Clear
12:35 AM 60.8 °F - 51.8 °F 72% 29.99 in 10.0 mi SSE 8.1 mph - N/A   Clear
12:55 AM 60.8 °F - 53.6 °F 77% 29.99 in 10.0 mi SSE 8.1 mph - N/A   Clear
1:15 AM 60.8 °F - 53.6 °F 77% 29.99 in 10.0 mi SSE 9.2 mph - N/A   Clear
1:35 AM 60.8 °F - 53.6 °F 77% 29.98 in 10.0 mi SSE 9.2 mph - N/A   Clear
1:55 AM 60.8 °F - 53.6 °F 77% 29.98 in 10.0 mi SSE 6.9 mph - N/A   Clear
2:15 AM 60.8 °F - 55.4 °F 82% 29.99 in 10.0 mi South 6.9 mph - N/A   Clear
2:35 AM 60.8 °F - 55.4 °F 82% 29.99 in 10.0 mi South 8.1 mph - N/A   Clear
2:55 AM 62.6 °F - 57.2 °F 82% 29.99 in 10.0 mi South 11.5 mph 17.3 mph N/A   Clear
3:15 AM 62.6 °F - 57.2 °F 82% 29.99 in 10.0 mi South 10.4 mph - N/A   Clear
3:35 AM 62.6 °F - 57.2 °F 82% 29.99 in 10.0 mi South 9.2 mph - N/A   Clear
3:55 AM 60.8 °F - 57.2 °F 88% 29.99 in 10.0 mi South 10.4 mph - N/A   Clear
4:15 AM 60.8 °F - 57.2 °F 88% 29.99 in 10.0 mi South 8.1 mph - N/A   Clear
4:35 AM 60.8 °F - 57.2 °F 88% 30.00 in 10.0 mi South 8.1 mph - N/A   Clear
4:55 AM 62.6 °F - 59.0 °F 88% 30.00 in 10.0 mi South 10.4 mph - N/A   Mostly Cloudy
5:15 AM 62.6 °F - 59.0 °F 88% 30.00 in 10.0 mi South 11.5 mph - N/A   Overcast
5:55 AM 64.4 °F - 59.0 °F 83% 30.00 in 10.0 mi South 16.1 mph 20.7 mph N/A   Overcast
6:15 AM 64.4 °F - 59.0 °F 83% 30.00 in 10.0 mi South 15.0 mph 21.9 mph N/A   Overcast
6:35 AM 64.4 °F - 59.0 °F 83% 30.00 in 10.0 mi South 13.8 mph - N/A   Mostly Cloudy
7:15 AM 62.6 °F - 57.2 °F 82% 30.01 in 10.0 mi SSE 11.5 mph - N/A   Clear
7:35 AM 60.8 °F - 59.0 °F 94% 30.02 in 10.0 mi SSE 9.2 mph - N/A   Clear
8:15 AM 62.6 °F - 59.0 °F 88% 30.03 in 10.0 mi South 9.2 mph - N/A   Overcast
8:35 AM 62.6 °F - 60.8 °F 94% 30.03 in 10.0 mi South 15.0 mph 18.4 mph N/A   Overcast
8:55 AM 64.4 °F - 60.8 °F 88% 30.04 in 10.0 mi South 15.0 mph 23.0 mph N/A   Overcast
9:15 AM 64.4 °F - 60.8 °F 88% 30.04 in 10.0 mi South 17.3 mph 21.9 mph N/A   Overcast
9:35 AM 66.2 °F - 60.8 °F 83% 30.04 in 10.0 mi South 17.3 mph - N/A   Overcast
9:55 AM 68.0 °F - 60.8 °F 78% 30.04 in 10.0 mi South 18.4 mph - N/A   Overcast
10:15 AM 68.0 °F - 60.8 °F 78% 30.04 in 10.0 mi South 18.4 mph 25.3 mph N/A   Overcast
10:35 AM 69.8 °F - 60.8 °F 73% 30.03 in 10.0 mi South 19.6 mph 26.5 mph N/A   Overcast
10:55 AM 69.8 °F - 60.8 °F 73% 30.03 in 10.0 mi South 18.4 mph 27.6 mph N/A   Overcast
11:15 AM 71.6 °F - 60.8 °F 69% 30.02 in 10.0 mi South 23.0 mph 28.8 mph N/A   Overcast
11:35 AM 73.4 °F - 60.8 °F 65% 30.01 in 10.0 mi South 21.9 mph 28.8 mph N/A   Scattered Clouds
11:55 AM 75.2 °F - 60.8 °F 61% 30.00 in 10.0 mi SSW 23.0 mph 31.1 mph N/A   Scattered Clouds
12:15 PM 75.2 °F - 60.8 °F 61% 29.99 in 10.0 mi South 25.3 mph 29.9 mph N/A   Scattered Clouds
12:35 PM 77.0 °F - 60.8 °F 57% 29.97 in 10.0 mi South 24.2 mph 27.6 mph N/A   Scattered Clouds
12:55 PM 77.0 °F - 60.8 °F 57% 29.96 in 10.0 mi South 21.9 mph 31.1 mph N/A   Clear
1:15 PM 78.8 °F - 59.0 °F 51% 29.95 in 10.0 mi South 23.0 mph 29.9 mph N/A   Clear
1:35 PM 78.8 °F - 59.0 °F 51% 29.94 in 10.0 mi South 21.9 mph 28.8 mph N/A   Clear
1:55 PM 80.6 °F 81.1 °F 59.0 °F 48% 29.93 in 10.0 mi South 21.9 mph 26.5 mph N/A   Clear
2:15 PM 80.6 °F 81.1 °F 59.0 °F 48% 29.92 in 10.0 mi South 18.4 mph 25.3 mph N/A   Clear
2:35 PM 80.6 °F 81.1 °F 59.0 °F 48% 29.92 in 10.0 mi SSW 21.9 mph 28.8 mph N/A   Clear
2:55 PM 80.6 °F 80.3 °F 53.6 °F 39% 29.91 in 10.0 mi South 18.4 mph 31.1 mph N/A   Clear
3:15 PM 80.6 °F 80.5 °F 55.4 °F 42% 29.91 in 10.0 mi SSW 21.9 mph 31.1 mph N/A   Clear
3:35 PM 80.6 °F 80.5 °F 55.4 °F 42% 29.91 in 10.0 mi SSW 19.6 mph 26.5 mph N/A   Clear
3:55 PM 80.6 °F 81.1 °F 59.0 °F 48% 29.92 in 10.0 mi South 17.3 mph 23.0 mph N/A   Clear
4:15 PM 78.8 °F - 59.0 °F 51% 29.91 in 10.0 mi South 21.9 mph 26.5 mph N/A   Clear
4:35 PM 78.8 °F - 59.0 °F 51% 29.91 in 10.0 mi South 18.4 mph 26.5 mph N/A   Scattered Clouds
4:55 PM 78.8 °F - 57.2 °F 47% 29.90 in 10.0 mi South 19.6 mph 28.8 mph N/A   Clear
5:15 PM 77.0 °F - 57.2 °F 50% 29.91 in 10.0 mi South 20.7 mph 28.8 mph N/A   Clear
5:35 PM 77.0 °F - 57.2 °F 50% 29.91 in 10.0 mi South 23.0 mph 31.1 mph N/A   Clear
5:55 PM 77.0 °F - 55.4 °F 47% 29.92 in 10.0 mi South 20.7 mph 26.5 mph N/A   Clear
6:15 PM 77.0 °F - 55.4 °F 47% 29.92 in 10.0 mi South 18.4 mph 27.6 mph N/A   Clear
6:35 PM 75.2 °F - 55.4 °F 50% 29.93 in 10.0 mi South 15.0 mph 21.9 mph N/A   Clear
6:55 PM 73.4 °F - 57.2 °F 57% 29.94 in 10.0 mi South 17.3 mph - N/A   Clear
7:15 PM 73.4 °F - 55.4 °F 53% 29.94 in 10.0 mi South 13.8 mph - N/A   Clear
7:35 PM 73.4 °F - 57.2 °F 57% 29.95 in 10.0 mi South 15.0 mph 19.6 mph N/A   Clear
7:55 PM 73.4 °F - 57.2 °F 57% 29.95 in 10.0 mi SSE 13.8 mph - N/A   Clear
8:15 PM 71.6 °F - 57.2 °F 60% 29.95 in 10.0 mi SSE 12.7 mph - N/A   Clear
8:35 PM 71.6 °F - 55.4 °F 57% 29.96 in 10.0 mi South 15.0 mph - N/A   Clear
8:55 PM 71.6 °F - 55.4 °F 57% 29.96 in 10.0 mi SSE 12.7 mph - N/A   Clear
9:15 PM 71.6 °F - 55.4 °F 57% 29.96 in 10.0 mi South 11.5 mph 18.4 mph N/A   Clear
9:35 PM 69.8 °F - 55.4 °F 60% 29.96 in 10.0 mi South 15.0 mph - N/A   Clear
9:55 PM 69.8 °F - 55.4 °F 60% 29.96 in 10.0 mi South 16.1 mph - N/A   Clear
10:15 PM 69.8 °F - 55.4 °F 60% 29.97 in 10.0 mi South 16.1 mph 20.7 mph N/A   Clear
10:35 PM 69.8 °F - 53.6 °F 56% 29.97 in 10.0 mi South 16.1 mph - N/A   Clear
10:55 PM 69.8 °F - 53.6 °F 56% 29.97 in 10.0 mi South 18.4 mph 26.5 mph N/A   Clear
11:15 PM 69.8 °F - 53.6 °F 56% 29.97 in 10.0 mi South 13.8 mph 23.0 mph N/A   Clear
11:35 PM 69.8 °F - 53.6 °F 56% 29.97 in 10.0 mi South 15.0 mph 21.9 mph N/A   Clear
11:55 PM 69.8 °F - 53.6 °F 56% 29.97 in 10.0 mi South 15.0 mph - N/A   Clear